Orbital Elements at Epoch 2459200.5 (2020-Dec-17.0) TDB
Reference: JPL 17 (heliocentric ecliptic J2000)
Element | Value | Uncertainty (1-sigma) | Units |
e | .1151436100709696 | 4.0676e-08 | |
a | 2.394512925793225 | 1.4036e-08 | au |
q | 2.118800063155793 | 1.0034e-07 | au |
i | 7.239422138156369 | 5.4149e-06 | deg |
node | 53.97694114493596 | 3.3781e-05 | deg |
peri | 213.2798441904228 | 4.3898e-05 | deg |
M | 28.70242163188607 | 2.5255e-05 | deg |
tp | 2459092.595329090713 (2020-Aug-31.09532909) | 9.5265e-05 | TDB |
period | 1353.393871274926 3.71 | 1.19e-05 3.258e-08 | d yr |
n | .2659979534714993 | 2.3388e-09 | deg/d |
Q | 2.670225788430657 | 1.5652e-08 | au |
|
| | Orbit Determination Parameters
Additional Information
|